Reading, PA

11:18 AM EDT on March 29, 2017 (GMT -0400)
Reading Regional-Spaatz

Weather History for KRDG - May, 2014

Change the Weather History Date:

Tuesday, May 6, 2014

  Actual Average Record
Temperature  
Mean Temperature 58 °F 58 °F  
Max Temperature 71 °F 70 °F 91 °F (1949)
Min Temperature 44 °F 47 °F 35 °F (1992)
Degree Days  
Heating Degree Days 7 8  
Month to date heating degree days 44 50  
Since 1 July heating degree days 5684 5248  
Cooling Degree Days 0 1  
Month to date cooling degree days 0 6  
Year to date cooling degree days 9 15  
Growing Degree Days 7 (Base 50)    
Moisture  
Dew Point 33 °F    
Average Humidity 54    
Maximum Humidity 83    
Minimum Humidity 25    
Precipitation  
Precipitation 0.00 in 0.13 in 3.77 in (1989)
Month to date precipitation 0.18 0.72  
Year to date precipitation 15.50 13.50  
Sea Level Pressure  
Sea Level Pressure 29.97 in    
Wind  
Wind Speed 5 mph (North)    
Max Wind Speed 20 mph    
Max Gust Speed 24 mph    
Visibility 10 miles    
Events      
T = Trace of Precipitation, MM = Missing Value Source: NWS Daily Summary

Daily Weather History Graph

Daily Weather History Graph

Search for Another Location

Airport or City:

Trip Planner

Search our weather history database for the weather conditions in past years. The results will help you decide how hot, cold, wet, or windy it might be!

Date:

Astronomy

May. 06, 2014 Rise Set
Actual Time 5:57 AM EDT 8:04 PM EDT
Civil Twilight 5:27 AM EDT 8:34 PM EDT
Nautical Twilight 4:50 AM EDT 9:11 PM EDT
Astronomical Twilight 4:10 AM EDT 9:51 PM EDT
Moon 12:11 PM EDT (5/6) 1:22 AM EDT (5/6)
Length of Visible Light 15h 07m
Length of Day
14h 07m
Waxing Crescent, 46% of the Moon is Illuminated
May 6
Waxing Crescent
May 6
First Quarter
May 14
Full
May 21
Last Quarter
May 28
New

Hourly Weather History & Observations

Time (EDT) Temp. Windchill Dew Point Humidity Pressure Visibility Wind Dir Wind Speed Gust Speed Precip Events Conditions
12:54 AM 48.0 °F - 36.0 °F 63% 29.92 in 10.0 mi Calm Calm - N/A   Clear
1:54 AM 50.0 °F - 32.0 °F 50% 29.91 in 10.0 mi Calm Calm - N/A   Clear
2:54 AM 46.0 °F - 36.0 °F 68% 29.91 in 10.0 mi Calm Calm - N/A   Clear
3:54 AM 44.1 °F 42.5 °F 37.9 °F 79% 29.93 in 10.0 mi NNE 3.5 mph - N/A   Clear
7:54 AM 50.0 °F - 37.9 °F 63% 29.98 in 10.0 mi NNW 3.5 mph - N/A   Partly Cloudy
8:54 AM 55.9 °F - 32.0 °F 40% 29.99 in 10.0 mi Calm Calm - N/A   Partly Cloudy
10:54 AM 63.0 °F - 30.9 °F 30% 29.98 in 10.0 mi NNE 5.8 mph - N/A   Clear
11:54 AM 64.0 °F - 30.9 °F 29% 29.97 in 10.0 mi West 4.6 mph - N/A   Clear
12:54 PM 66.0 °F - 32.0 °F 28% 29.96 in 10.0 mi West 3.5 mph - N/A   Clear
1:54 PM 66.9 °F - 32.0 °F 27% 29.94 in 10.0 mi Variable 6.9 mph - N/A   Clear
2:54 PM 70.0 °F - 34.0 °F 27% 29.92 in 10.0 mi North - - N/A   Clear
3:54 PM 70.0 °F - 33.1 °F 26% 29.92 in 10.0 mi North 12.7 mph - N/A   Clear
4:54 PM 70.0 °F - 33.1 °F 26% 29.93 in 10.0 mi NW 9.2 mph 17.3 mph N/A   Clear
5:54 PM 70.0 °F - 32.0 °F 25% 29.94 in 10.0 mi NNW 8.1 mph - N/A   Clear
6:54 PM 68.0 °F - 33.1 °F 27% 29.96 in 10.0 mi North 10.4 mph - N/A   Clear
7:54 PM 66.0 °F - 30.9 °F 27% 29.99 in 10.0 mi NNE 6.9 mph - N/A   Clear
8:54 PM 62.1 °F - 32.0 °F 32% 30.02 in 10.0 mi NNE 8.1 mph - N/A   Clear
9:54 PM 62.1 °F - 28.9 °F 29% 30.05 in 10.0 mi NE 5.8 mph - N/A   Clear
10:54 PM 59.0 °F - 30.0 °F 33% 30.08 in 10.0 mi North 6.9 mph - N/A   Clear
11:54 PM 57.0 °F - 30.0 °F 36% 30.10 in 10.0 mi Calm Calm - N/A   Clear